STARLINK-4590, 53606

Orbit data source: Space-Track

STARLINK-4590, 53606 is a payload satellite owned by SpaceX/Seattle (US) in LEO that was launched on Sun, 28 Aug 2022 UTC via an FALCON 9 launch vehicle from the Air Force Eastern Test Range (AFETR). Payload-class satellites include a variety of spacecraft equipped with specific instruments for various scientific and technological missions. These include communications satellites like Starlink; space stations such as the ISS; scientific satellites like the Hubble; Earth observation satellites from companies like Planet Labs, Umbra, and HawkEye 360; GPS; miniature CubeSats for education and research; and military/defense satellites.

Loading next visibility...
Identifier
53606, 2022-104U
Orbit
LEO
Country
Flag of USUS
Related business
Manufacturer
SpaceX/Seattle
Mission
Operational Commercial Communications
Bus & Motor
STARLINK, Unknown motor
Mass
300 kg wet, ~290 kg dry
Launch date (UTC)
2022-08-28 (3 years ago)
Launch vehicle
FALCON 9
Launch site
Air Force Eastern Test Range (AFETR)
Object type
Payload
Rocket body
Debris
Shape & HBR
Box + 1 Pan, 10.1 m
Radar Cross Section
13.562 m², Large (>1 m²)

Expand to show TLE details & history
Last TLE update: 23 hours ago

TLE from 23 hours ago
0 STARLINK-4590
1 53606U 22104U   25347.18170393 -.00001101  00000-0 -51054-4 0  9996
2 53606  53.2169 262.5819 0001504  89.4043 270.7122 15.08844047182574
Epoch: 2025-12-13T04:21Z
TLE epoch observation values (Epoch: 2025-12-13T04:21:39.219Z)
Latitude
0.00002°
Longitude
115.05585°
Altitude
540.616 km
Speed
7.593 km/s
True Right ascension
17h 30m 19s
True Declination
0° 00' 00"
Sunlit
Object was in daylight at epoch
Visualization orbit readout
Latitude
Unknown
Longitude
Unknown
Altitude
Unknown
Speed
Unknown
Apparent Right ascension
Unknown
Apparent Declination
Unknown
Sunlit
N/A
Visualization observer readout
Local Sidereal Time
01:28:45
Azimuth
Unknown
Elevation
Unknown
Doppler factor
Unknown
Orbital elements
Apogee altitude
541.017 km
Perigee altitude
538.936 km
Semi-major axis
6,918.113 km
Eccentricity
0.00015
Inclination
53.2169°
RAAN
262.5819°
Arg. of periapsis
89.4043°
True anomaly
270.69497°
Mean anomaly
270.7122°
Eccentric anomaly
270.70358°
Mean motion
3.77191 °/min
Orbital period
95.44 mins
BSTAR
-0.000051054
Loading maneuver chart data...
Computing Atmospheric mass density...
Loading historical data...
Loading historical data...
Loading historical data...
Loading historical data...
Loading historical data...
Loading historical data...
Loading historical data...

Documentation

Showing up to 5 results
|